Location: Pasarilla del Rebollar
(40.6790°N, 5.0062°W)
Time: 12:08:56
(UTC+00:00)

Resurs 1-4 Rocket - Pass Details

Date: 22 April 2026
Orbit: 798 x 812 km, 98.8° (Epoch: 16 May)

Event Time Altitude Azimuth Distance (km) Brightness Sun altitude
Rises 04:25:00 0° 358° (N) 3,338 5.7 -12.4°
Reaches altitude 10° 04:27:59 10° 341° (NNW) 2,400 4.7 -11.9°
Maximum altitude 04:31:34 19° 298° (WNW) 1,855 3.7 -11.3°
Enters shadow 04:34:23 13° 262° (W) 2,204 3.8 -10.8°
